TimeEST,TemperatureF,Dew PointF,Humidity,Sea Level PressureIn,VisibilityMPH,Wind Direction,Wind SpeedMPH,Gust SpeedMPH,PrecipitationIn,Events,Conditions,WindDirDegrees,DateUTC
12:53 AM,62.1,60.1,93,30.13,8.0,South,5.8,-,N/A,,Clear,180,2013-01-30 05:53:00
1:53 AM,63.0,61.0,93,30.11,9.0,South,8.1,-,N/A,,Clear,190,2013-01-30 06:53:00
2:53 AM,63.0,60.1,90,30.09,10.0,South,8.1,-,N/A,,Clear,180,2013-01-30 07:53:00
3:53 AM,63.0,60.1,90,30.08,10.0,South,8.1,-,N/A,,Clear,180,2013-01-30 08:53:00
4:53 AM,64.0,60.1,87,30.06,10.0,South,8.1,-,N/A,,Clear,180,2013-01-30 09:53:00
5:53 AM,66.0,61.0,84,30.04,10.0,South,13.8,-,N/A,,Clear,190,2013-01-30 10:53:00
6:53 AM,64.9,60.1,84,30.06,10.0,SSW,8.1,18.4,N/A,,Clear,200,2013-01-30 11:53:00
7:53 AM,66.0,61.0,84,30.04,10.0,South,10.4,-,N/A,,Clear,170,2013-01-30 12:53:00
8:53 AM,69.1,61.0,75,30.03,10.0,South,13.8,25.3,N/A,,Clear,190,2013-01-30 13:53:00
9:53 AM,72.0,61.0,68,30.02,10.0,South,19.6,26.5,N/A,,Clear,180,2013-01-30 14:53:00
10:50 AM,73.4,60.8,65,30.00,10.0,South,18.4,29.9,N/A,,Mostly Cloudy,180,2013-01-30 15:50:00
10:53 AM,73.9,61.0,64,30.00,10.0,South,18.4,29.9,N/A,,Mostly Cloudy,190,2013-01-30 15:53:00
11:03 AM,73.4,60.8,65,29.99,10.0,South,24.2,33.4,N/A,,Scattered Clouds,180,2013-01-30 16:03:00
11:53 AM,75.0,61.0,62,29.96,10.0,South,19.6,28.8,N/A,,Partly Cloudy,180,2013-01-30 16:53:00
12:53 PM,75.9,61.0,60,29.94,10.0,South,17.3,29.9,N/A,,Mostly Cloudy,190,2013-01-30 17:53:00
1:53 PM,73.0,61.0,66,29.91,10.0,South,19.6,32.2,N/A,,Overcast,180,2013-01-30 18:53:00
2:53 PM,73.0,61.0,66,29.88,10.0,South,18.4,33.4,N/A,,Overcast,180,2013-01-30 19:53:00
3:53 PM,72.0,61.0,68,29.85,10.0,South,23.0,33.4,N/A,,Mostly Cloudy,180,2013-01-30 20:53:00
4:53 PM,71.1,62.1,73,29.82,10.0,South,20.7,31.1,N/A,,Mostly Cloudy,190,2013-01-30 21:53:00
5:53 PM,69.1,62.1,78,29.80,10.0,South,19.6,29.9,N/A,,Overcast,180,2013-01-30 22:53:00
6:53 PM,68.0,63.0,84,29.77,10.0,South,20.7,31.1,N/A,,Overcast,180,2013-01-30 23:53:00
7:53 PM,68.0,62.1,81,29.75,10.0,South,21.9,34.5,N/A,,Overcast,180,2013-01-31 00:53:00
8:06 PM,68.0,62.6,83,29.74,10.0,South,20.7,29.9,N/A,,Overcast,180,2013-01-31 01:06:00
8:26 PM,68.0,62.6,83,29.74,10.0,South,20.7,29.9,N/A,,Overcast,180,2013-01-31 01:26:00
8:53 PM,69.1,62.1,78,29.73,10.0,South,23.0,32.2,N/A,,Overcast,180,2013-01-31 01:53:00
9:53 PM,70.0,62.1,76,29.70,10.0,South,19.6,32.2,N/A,,Overcast,180,2013-01-31 02:53:00
10:21 PM,69.8,62.6,78,29.67,10.0,South,24.2,33.4,N/A,,Overcast,180,2013-01-31 03:21:00
10:53 PM,69.1,62.1,78,29.66,10.0,South,21.9,35.7,N/A,,Overcast,190,2013-01-31 03:53:00
11:53 PM,70.0,63.0,78,29.62,10.0,South,25.3,38.0,N/A,,Mostly Cloudy,190,2013-01-31 04:53:00